ヒル彗星

C/2008 J6 ( Hill )

English version
Home page
Total 6,336 html files since Dec. 4, 1995
Updated on July 20, 2008

---------------------------------------------------------------------

・ プロフィール

発見日 2008年5月14日
発見光度 15.5等
発見者 R. E. Hill (Catalina Sky Survey)

・ 写真集

・ 軌道要素

Epoch 2008 Apr. 4.0 TT = JDT 2454560.5
T 2008 Apr. 10.94131 TT                                 MPC
q   2.0034747            (2000.0)            P               Q
z  -0.0011193      Peri.   10.70219     +0.57977125     +0.52491109
 +/-0.0000501      Node   298.17774     -0.78999908     +0.17496051
e   1.0022424      Incl.   44.98702     -0.19941600     +0.83298090

・ 星図

・ 光度変化

        m1 = 11.0 + 5 logΔ + 10.0 log r

---------------------------------------------------------------------

軌道要素はM.P.E.C. 2008-N42に掲載されたものです。
星図はステラナビゲータ Ver.8 (アストロアーツ) で作成したものです。
光度グラフはComet for Windowsで作成したものです。

---------------------------------------------------------------------

Copyright(C) 1995-2008 Seiichi Yoshida (comet@aerith.net). All rights reserved.